Regional Weather Roundup
Issued by NWS

Home | Current Version | Previous Version | Text Only | Print | Product List | Glossary Off
Versions: 1 2 3 4 5 6 7 8 9 10 11 12 13 14 15 16 17 18 19 20 21 22 23 24 25 26 27 28 29 30 31 32 33 34 35 36 37 38 39 40 41 42 43 44 45 46 47 48 49

000
ASUS43 KDMX 280207
RWRIA

WEATHER ROUNDUP FOR IOWA
NATIONAL WEATHER SERVICE DES MOINES IA
900 PM CDT MON JUL 27 2015

NOTE: "FAIR" INDICATES FEW OR NO CLOUDS BELOW 12,000 FEET WITH NO
SIGNIFICANT WEATHER AND/OR OBSTRUCTIONS TO VISIBILITY.

* - THESE STATIONS ARE NOT NWS STATIONS...THUS NOT UNDER NWS
QUALITY CONTROL.  THEY ALSO DO NOT REPORT WEATHER SUCH
AS PRECIPITATION OR FOG.

IAZ001>003-012>014-020>022-031>034-043>046-280300-
   NORTHWEST IOWA

CITY           SKY/WX    TMP DP  RH WIND       PRES   REMARKS
CARROLL *      PTCLDY    73  68  83 S12G18    29.88S
CHEROKEE *     MOCLDY    75  70  83 S10       29.85S
DENISON *      MOCLDY    75  68  78 SE14G29   29.85S
LE MARS *      PTCLDY    77  73  88 SE14      29.82S
ORANGE CITY *  PTCLDY    75  72  88 S10G18    29.83S
SHELDON *      PTCLDY    77  72  83 SE14G22   29.83S
SIOUX CITY     CLEAR     79  71  76 SE18      29.81S HX  82
SPENCER        CLEAR     77  67  71 S13       29.87R
STORM LAKE *   MOCLDY    73  68  83 S12G17    29.88S
$$

IAZ055>058-069>071-079>083-090>094-280300-
   SOUTHWEST IOWA

CITY           SKY/WX    TMP DP  RH WIND       PRES   REMARKS
ATLANTIC *     PTCLDY    77  72  83 SE8G15    29.88S
AUDUBON *      PTCLDY    73  68  83 SE8       29.90S
CLARINDA *     PTCLDY    77  72  83 SE6G18    29.89S
COUNCIL BLFS * CLEAR     75  72  88 SE14      29.86S
CRESTON *      CLEAR     73  72  94 SE12      29.91F
HARLAN  *      PTCLDY    75  75 100 S10       29.91S
LAMONI         PTCLDY    76  71  85 SE6       29.92S
RED OAK *      CLEAR     77  72  83 SE10      29.87F
SHENANDOAH *   PTCLDY    77  72  83 SE13      29.86F
$$

IAZ047>049-059>061-072>074-084-280300-
   CENTRAL IOWA

CITY           SKY/WX    TMP DP  RH WIND       PRES   REMARKS
AMES           CLEAR     72  68  87 E3        29.90S
ANKENY *       CLEAR     73  70  88 S6        29.89S
CHARITON *     CLOUDY    73  72  94 SE7G14    29.92S
DES MOINES     MOCLDY    74  67  78 S10       29.89S
GRINNELL*      PTCLDY    72  70  94 E7        29.93R
KNOXVILLE *    CLEAR     72  70  94 S9        29.90S
MARSHALLTOWN   PTCLDY    73  70  90 SE7       29.90F
PELLA *        PTCLDY    71  71 100 SE6       29.93R
PERRY *          N/A     73  68  83 S8        29.89R
$$

IAZ004>006-015-016-023>025-035-036-280300-
   NORTH CENTRAL IOWA

CITY           SKY/WX    TMP DP  RH WIND       PRES   REMARKS
ALGONA *       CLEAR     73  68  83 SE9       29.90S
CLARION *      CLEAR     72  68  88 SE9       29.91S
ESTHERVILLE    CLEAR     73  68  84 SE9       29.88S
FORT DODGE *   CLEAR     72  66  83 E6        29.90S
MASON CITY     CLEAR     72  70  93 SE7       29.94S
FOREST CITY *    N/A     72  66  83 SE5       29.92S
IOWA FALLS *     N/A     72  68  88 E3        29.93R
$$

IAZ007>011-017>019-026>030-037>042-050>054-066-280300-
   NORTHEAST IOWA

CITY           SKY/WX    TMP DP  RH WIND       PRES   REMARKS
CEDAR RAPIDS   CLOUDY    76  74  93 SE7       29.92F
CHARLES CITY * CLEAR     75  75 100 SE7       29.94S
CLINTON *      CLOUDY    77  70  78 SE8       29.98S
DECORAH *      PTCLDY    75  72  88 SE6       29.95S
DUBUQUE        MOCLDY    76  72  87 SE7       29.97S
MONTICELLO *   CLOUDY    77  73  88 E6        29.95S
OELWEIN *      MOCLDY    75  72  88 SE6       29.95R
WATERLOO       MOCLDY    77  72  84 SE6       29.91S
$$

IAZ064-065-067-068-078-280300-
   EAST CENTRAL IOWA

CITY           SKY/WX    TMP DP  RH WIND       PRES   REMARKS
DAVENPORT      CLOUDY    77  72  84 SE6       29.96S
IOWA CITY      CLOUDY    78  73  84 SE8       29.93F HX  81
MT. PLEASANT * CLOUDY    78  74  86 SE7       29.93S HX  80
MUSCATINE *    CLOUDY    79  73  83 SE7       29.94S HX  82
QUAD CITIES    CLOUDY    78  74  87 SE5       29.95S HX  81
$$

IAZ062-063-075>077-085>089-095>099-280300-
   SOUTHEAST IOWA

CITY           SKY/WX    TMP DP  RH WIND       PRES   REMARKS
BURLINGTON     CLOUDY    77  75  93 SE8       29.93F
FAIRFIELD *    CLOUDY    75  73  94 SE8       29.93R
FORT MADISON * LGT RAIN  75  75 100 SE10      29.94F
KEOKUK *       CLOUDY    77  75  94 E15       29.91F
OSKALOOSA *      N/A     72  69  92 SE3       29.92S
CENTERVILLE *    N/A     73  72  94 E6        29.95S
OTTUMWA        MOCLDY    74  73  97 SE8       29.91R
WASHINGTON *   CLOUDY    75  75 100 SE6       29.94R
$$

ABBREVIATIONS USED IN REMARKS
   TC - TEMPERATURES IN CELSIUS
  WCI - WIND CHILL INDEX
   HX - HEAT INDEX
  VSB - VISIBILITY
$$



USA.gov is the U.S. government's official web portal to all federal, state and local government web resources and services.